Date String (YYYY-MM-DD hh:mm:ss) UTC,Instrument flags,Ambient pressure (hPa),Sample flow (lpm),Bypass flow (lpm),Sample temperature (°C),Ambient temperature (°C),ASC tube jacket temperature (°C),LED temperature (°C),Box temperature (°C),Sample RH (%),Span deviation,Mass concentration (μg/m³),Mass concentration (μg/m³),Mass concentration (μg/m³)
DateTimeUTC,F1_M11,P_M11,Q1_M11,Q2_M11,T1_M11,T2_M11,T3_M11,T4_M11,T5_M11,U1_M11,ZSPAN_M11,X0_M11,X2_M11,X1_M11
2022-08-27 19:00:00,,0823.2,5.00,0.00,29.5,27.1,00.0,38.1,31.3,12.8,0000.0,0010.84,0004.44,0004.00
2022-08-27 19:01:00,,0823.2,5.00,0.00,29.4,26.6,00.0,38.0,31.3,12.7,0000.0,0010.94,0004.45,0004.00
2022-08-27 19:02:00,,0823.1,5.00,0.00,29.4,26.8,00.0,38.0,31.2,12.8,0000.0,0010.92,0004.47,0004.01
2022-08-27 19:03:00,,0823.1,5.00,0.00,29.3,27.0,00.0,38.0,31.0,12.9,0000.0,0010.65,0004.52,0004.01
2022-08-27 19:04:00,,0823.1,4.99,0.00,29.3,27.3,00.0,38.0,31.0,12.8,0000.0,0010.62,0004.53,0004.02
2022-08-27 19:05:00,,0823.2,4.99,0.00,29.3,27.6,00.0,38.0,31.1,13.1,0000.0,0011.03,0004.54,0004.02
2022-08-27 19:06:00,,0823.1,5.01,0.00,29.3,27.8,00.0,38.0,31.2,13.8,0000.0,0010.72,0004.52,0004.02
2022-08-27 19:07:00,,0823.1,5.00,0.00,29.4,28.0,00.0,38.0,31.2,13.9,0000.0,0010.74,0004.53,0004.04
2022-08-27 19:08:00,,0823.1,5.00,0.00,29.4,28.2,00.0,38.0,31.3,13.8,0000.0,0010.46,0004.57,0004.05
2022-08-27 19:09:00,,0823.1,5.00,0.00,29.5,28.2,00.0,38.0,31.4,13.7,0000.0,0010.59,0004.59,0004.06
2022-08-27 19:10:00,,0823.0,5.00,0.00,29.5,27.2,00.0,38.0,31.3,13.3,0000.0,0009.98,0004.60,0004.05
2022-08-27 19:11:00,,0823.0,4.99,0.00,29.4,26.5,00.0,38.0,31.2,13.6,0000.0,0009.39,0004.57,0004.04
2022-08-27 19:12:00,,0823.1,5.01,0.00,29.4,26.7,00.0,38.0,31.2,14.1,0000.0,0009.30,0004.55,0004.04
2022-08-27 19:13:00,,0823.0,5.00,0.00,29.3,27.0,00.0,38.0,31.1,14.3,0000.0,0009.62,0004.56,0004.03
2022-08-27 19:14:00,,0823.0,4.99,0.00,29.3,27.3,00.0,37.9,31.0,13.5,0000.0,0009.89,0004.53,0004.04
2022-08-27 19:15:00,,0823.0,5.01,0.00,29.3,27.5,00.0,38.0,31.1,13.0,0000.0,0009.95,0004.53,0004.04
2022-08-27 19:16:00,,0823.0,4.99,0.00,29.3,27.8,00.0,38.0,31.2,14.2,0000.0,0009.62,0004.54,0004.03
2022-08-27 19:17:00,,0823.0,5.01,0.00,29.4,28.0,00.0,38.0,31.2,14.3,0000.0,0009.55,0004.56,0004.05
2022-08-27 19:18:00,,0823.0,5.00,0.00,29.4,28.2,00.0,38.0,31.3,13.1,0000.0,0009.51,0004.56,0004.05
2022-08-27 19:19:00,,0823.0,4.99,0.00,29.4,28.2,00.0,38.0,31.3,13.3,0000.0,0009.45,0004.54,0004.04
2022-08-27 19:20:00,,0823.0,5.00,0.00,29.4,27.4,00.0,38.0,31.3,13.4,0000.0,0008.86,0004.53,0004.04
2022-08-27 19:21:00,,0823.0,4.99,0.00,29.4,26.6,00.0,38.0,31.2,13.3,0000.0,0008.44,0004.53,0004.06
2022-08-27 19:22:00,,0823.0,5.01,0.00,29.4,26.7,00.0,38.0,31.2,13.4,0000.0,0008.40,0004.57,0004.07
2022-08-27 19:23:00,,0822.9,5.01,0.00,29.3,27.0,00.0,37.9,31.1,13.2,0000.0,0009.02,0004.59,0004.07
2022-08-27 19:24:00,,0823.0,5.00,0.00,29.3,27.2,00.0,37.9,31.1,13.4,0000.0,0008.77,0004.58,0004.08
2022-08-27 19:25:00,,0823.0,5.00,0.00,29.3,27.5,00.0,37.9,31.1,13.4,0000.0,0008.46,0004.59,0004.07
2022-08-27 19:26:00,,0823.0,5.01,0.00,29.3,27.8,00.0,37.9,31.2,13.3,0000.0,0008.48,0004.59,0004.09
2022-08-27 19:27:00,,0823.0,5.01,0.00,29.4,28.0,00.0,37.9,31.3,13.6,0000.0,0009.03,0004.58,0004.10
2022-08-27 19:28:00,,0822.9,5.00,0.00,29.4,28.2,00.0,38.0,31.3,13.3,0000.0,0009.48,0004.59,0004.09
2022-08-27 19:29:00,,0823.0,5.00,0.00,29.5,28.4,00.0,38.0,31.4,13.3,0000.0,0009.55,0004.61,0004.10
2022-08-27 19:30:00,,0822.8,4.99,0.00,29.5,27.7,00.0,38.0,31.4,13.6,0000.0,0009.47,0004.57,0004.10
2022-08-27 19:31:00,,0822.9,5.01,0.00,29.4,26.6,00.0,38.0,31.3,14.4,0000.0,0009.66,0004.55,0004.10
2022-08-27 19:32:00,,0822.9,4.99,0.00,29.4,26.7,00.0,38.0,31.2,14.6,0000.0,0010.33,0004.53,0004.09
2022-08-27 19:33:00,,0823.0,5.00,0.00,29.4,26.9,00.0,38.0,31.1,14.4,0000.0,0010.65,0004.53,0004.08
2022-08-27 19:34:00,,0823.0,5.00,0.00,29.3,27.2,00.0,38.0,31.0,14.3,0000.0,0010.09,0004.53,0004.09
2022-08-27 19:35:00,,0823.0,4.99,0.00,29.3,27.5,00.0,38.0,31.1,14.3,0000.0,0010.00,0004.52,0004.09
2022-08-27 19:36:00,,0822.9,5.00,0.00,29.4,27.8,00.0,38.0,31.2,14.0,0000.0,0010.67,0004.52,0004.09
2022-08-27 19:37:00,,0822.8,5.00,0.00,29.4,28.0,00.0,38.0,31.3,13.5,0000.0,0011.13,0004.53,0004.07
2022-08-27 19:38:00,,0822.8,5.00,0.00,29.4,28.2,00.0,38.0,31.3,12.9,0000.0,0010.42,0004.51,0004.05
2022-08-27 19:39:00,,0822.8,5.00,0.00,29.5,28.2,00.0,38.0,31.4,12.5,0000.0,0010.09,0004.49,0004.04
2022-08-27 19:40:00,,0822.8,5.00,0.00,29.5,27.1,00.0,38.0,31.3,12.7,0000.0,0010.09,0004.48,0004.04
2022-08-27 19:41:00,,0822.8,4.99,0.00,29.4,26.5,00.0,38.0,31.2,13.1,0000.0,0010.15,0004.51,0004.05
2022-08-27 19:42:00,,0822.7,5.00,0.00,29.4,26.8,00.0,38.0,31.2,13.8,0000.0,0009.97,0004.54,0004.05
2022-08-27 19:43:00,,0822.8,4.99,0.00,29.3,27.0,00.0,37.9,31.0,14.3,0000.0,0009.26,0004.55,0004.05
2022-08-27 19:44:00,,0822.8,5.00,0.00,29.3,27.3,00.0,37.9,31.0,14.2,0000.0,0008.94,0004.55,0004.06
2022-08-27 19:45:00,,0822.8,5.01,0.00,29.3,27.6,00.0,37.9,31.1,14.5,0000.0,0008.90,0004.53,0004.06
2022-08-27 19:46:00,,0822.7,5.00,0.00,29.3,27.8,00.0,38.0,31.2,14.6,0000.0,0008.87,0004.53,0004.06
2022-08-27 19:47:00,,0822.8,5.00,0.00,29.4,28.0,00.0,38.0,31.2,14.6,0000.0,0008.20,0004.50,0004.07
2022-08-27 19:48:00,,0822.8,5.01,0.00,29.4,28.2,00.0,38.0,31.3,14.1,0000.0,0007.64,0004.49,0004.08
2022-08-27 19:49:00,,0822.8,4.99,0.00,29.5,28.2,00.0,38.0,31.4,13.3,0000.0,0007.65,0004.51,0004.09
2022-08-27 19:50:00,,0822.8,5.01,0.00,29.5,27.3,00.0,38.0,31.3,13.0,0000.0,0007.62,0004.51,0004.09
2022-08-27 19:51:00,,0822.7,4.99,0.00,29.4,26.5,00.0,38.0,31.2,13.0,0000.0,0007.88,0004.52,0004.08
2022-08-27 19:52:00,,0822.7,5.01,0.00,29.4,26.7,00.0,38.0,31.2,13.3,0000.0,0008.16,0004.52,0004.07
2022-08-27 19:53:00,,0822.7,5.00,0.00,29.3,27.0,00.0,38.0,31.1,13.1,0000.0,0008.04,0004.49,0004.07
2022-08-27 19:54:00,,0822.7,5.00,0.00,29.3,27.3,00.0,37.9,31.0,12.5,0000.0,0007.95,0004.46,0004.06
2022-08-27 19:55:00,,0822.7,5.01,0.00,29.3,27.5,00.0,37.9,31.1,11.6,0000.0,0007.92,0004.44,0004.04
2022-08-27 19:56:00,,0822.7,5.00,0.00,29.3,27.8,00.0,38.0,31.2,11.9,0000.0,0008.04,0004.43,0004.01
2022-08-27 19:57:00,,0822.7,5.01,0.00,29.4,28.0,00.0,38.0,31.3,11.8,0000.0,0007.96,0004.41,0003.99
2022-08-27 19:58:00,,0822.6,5.00,0.00,29.4,28.2,00.0,38.0,31.3,12.1,0000.0,0007.86,0004.39,0003.98
2022-08-27 19:59:00,,0822.6,4.99,0.00,29.5,28.0,00.0,38.0,31.4,13.6,0000.0,0007.88,0004.40,0003.98
